Flag for Taiwan Weather past 2 weeks in Taichung, Taiwan

Now
64 °F

Partly cloudy.


Feels Like: 64 °F
Forecast: 71 / 83 °F
Wind: 6 mph from East

Location: Chiang Kai Shek

Current Time: Apr 22, 2015 at 5:36:50 AM

Latest Report: Apr 22, 2015 at 5:00 AM


Visibility: N/A

Pressure: 30.04 "Hg

Humidity: 94%

Dew point: 63 °F

Location of TaichungLocation

Historic Weather in Taichung — Graph

°F

Taichung temperature yesterday

Maximum temperature yesterday: 66 °F (at 1:30 PM)
Minimum temperature yesterday: 63 °F (at 3:00 AM)
Average temperature yesterday: 65 °F

Past Weeks' High & Low Weather Summary

 TemperatureHumidityPressure
High90 °F (Apr 20, 10:30 AM)100% (Apr 7, 6:00 AM)30.21 "Hg (Apr 7, 6:00 AM)
Low54 °F (Apr 14, 3:30 AM)27% (Apr 14, 1:00 PM)29.62 "Hg (Apr 20, 2:30 AM)
Average67 °F82%29.99 "Hg
* Reported Apr 7 4:00 AM — Apr 22 4:00 AM, Taichung, Weather by CustomWeather, © 2015

Note: Actual official high and low records may vary slightly from our data, if they occured in-between our weather recording intervals... More about our weather records

Advertising

Taichung weather history for previous 24 hours

 ConditionsComfort  
Time TempWeatherWind HumidityBarometerVisibility
4:00 AM
Wed, Apr 22
64 °FPartly cloudy.6 mph88%30.04 "HgN/A
3:30 AM64 °FPassing clouds.7 mph88%30.04 "HgN/A
3:00 AM64 °FPassing clouds.7 mph88%30.04 "HgN/A
2:30 AM64 °FPassing clouds.10 mph88%30.04 "HgN/A
2:00 AM64 °FPassing clouds.8 mph88%30.04 "HgN/A
1:30 AM64 °FPassing clouds.7 mph88%30.04 "HgN/A
1:00 AM64 °FPassing clouds.5 mph88%30.04 "HgN/A
12:30 AM64 °FPassing clouds.5 mph88%30.04 "HgN/A
12:00 AM64 °FPassing clouds.9 mph88%30.04 "HgN/A
11:30 PM
Tue, Apr 21
66 °FPassing clouds.9 mph83%30.07 "HgN/A
11:00 PM66 °FPassing clouds.8 mph83%30.07 "HgN/A
10:30 PM64 °FPassing clouds.8 mph88%30.07 "HgN/A
10:00 PM64 °FPassing clouds.7 mph88%30.07 "HgN/A
9:30 PM66 °FPassing clouds.12 mph83%30.04 "HgN/A
9:00 PM66 °FPassing clouds.12 mph83%30.04 "HgN/A
8:30 PM66 °FPassing clouds.8 mph83%30.04 "HgN/A
8:00 PM64 °FPassing clouds.12 mph88%30.01 "HgN/A
7:30 PM64 °FPassing clouds.14 mph88%30.01 "HgN/A
7:00 PM64 °FPassing clouds.12 mph88%29.98 "HgN/A
6:30 PM64 °FPassing clouds.13 mph88%29.98 "HgN/A
6:00 PM64 °FPartly sunny.12 mph88%29.98 "HgN/A
5:30 PM64 °FPartly sunny.13 mph88%29.98 "HgN/A
5:00 PM66 °FPartly sunny.14 mph83%29.95 "HgN/A
4:30 PM66 °FPartly sunny.14 mph83%29.95 "HgN/A
4:00 PM66 °FPartly sunny.13 mph83%29.95 "HgN/A
3:30 PM66 °FPartly sunny.16 mph83%29.95 "HgN/A
3:00 PM66 °FPartly sunny.15 mph83%29.95 "HgN/A
2:30 PM66 °FPartly sunny.18 mph83%29.95 "HgN/A
2:00 PM66 °FPartly sunny.16 mph83%29.95 "HgN/A
1:53 PM66 °FPartly sunny.17 mph83%29.95 "HgN/A
1:30 PM66 °FPartly sunny.16 mph83%29.98 "HgN/A
1:00 PM64 °FPartly sunny.16 mph88%29.98 "Hg6 mi
12:30 PM64 °FBroken clouds.12 mph88%29.98 "Hg5 mi
12:00 PM64 °FBroken clouds.13 mph88%30.01 "Hg4 mi
11:30 AM64 °FBroken clouds.14 mph88%30.01 "Hg4 mi
11:00 AM64 °FBroken clouds.15 mph88%30.01 "Hg4 mi
10:30 AM64 °FBroken clouds.14 mph88%30.01 "Hg4 mi
10:00 AM64 °FBroken clouds.15 mph88%30.01 "Hg4 mi
9:30 AM64 °FPartly sunny.16 mph88%30.01 "Hg5 mi
9:00 AM64 °FPartly sunny.13 mph88%30.01 "Hg6 mi
8:30 AM64 °FPartly sunny.18 mph88%29.98 "Hg6 mi
8:00 AM64 °FPartly sunny.18 mph88%29.98 "Hg6 mi
7:30 AM64 °FPartly sunny.20 mph88%29.95 "Hg6 mi
7:00 AM64 °FSprinkles. Broken clouds.18 mph94%29.92 "Hg6 mi
6:30 AM64 °FSprinkles. Broken clouds.13 mph94%29.92 "Hg5 mi
6:00 AM63 °FSprinkles. Broken clouds.10 mph100%29.92 "Hg5 mi
5:00 AM63 °FSprinkles. Passing clouds.3 mph94%29.92 "Hg5 mi
Weather by CustomWeather, © 2015

See weather overviewHow to use our weather pages